Sitka, AK

5:10 AM AKST on February 21, 2018 (GMT -0900)
Sitka Rocky Gutierrez

Weather History for PASI - October, 2011

Change the Weather History Date:

Tuesday, October 25, 2011

  Actual Average Record
Temperature  
Mean Temperature 42 °F 44 °F  
Max Temperature 46 °F 48 °F 59 °F (1962)
Min Temperature 39 °F 39 °F 28 °F (1991)
Degree Days  
Heating Degree Days 22 21  
Month to date heating degree days 453  
Moisture  
Dew Point 39 °F    
Average Humidity 82    
Maximum Humidity 93    
Minimum Humidity 71    
Precipitation  
Precipitation 1.26 in 0.38 in 2.15 in (1974)
Month to date precipitation 10.70  
Year to date precipitation 65.93  
Sea Level Pressure  
Sea Level Pressure 29.85 in    
Wind  
Wind Speed 13 mph (ESE)    
Max Wind Speed 24 mph    
Max Gust Speed 43 mph    
Visibility 7 miles    
Events Rain    
T = Trace of Precipitation, MM = Missing Value Source: NWS Daily Summary

Daily Weather History Graph

Daily Weather History Graph

Search for Another Location

Airport or City:

Trip Planner

Search our weather history database for the weather conditions in past years. The results will help you decide how hot, cold, wet, or windy it might be!

Date:

Astronomy

Oct. 25, 2011 Rise Set
Actual Time 7:56 AM AKDT 5:33 PM AKDT
Civil Twilight 7:16 AM AKDT 6:13 PM AKDT
Nautical Twilight 6:31 AM AKDT 6:58 PM AKDT
Astronomical Twilight 5:47 AM AKDT 7:42 PM AKDT
Moon 6:34 AM AKDT (10/25) 4:38 PM AKDT (10/25)
Length of Visible Light 10h 56m
Length of Day
9h 37m
Waning Crescent, 2% of the Moon is Illuminated
Oct 25
Waning Crescent
Oct 26
New
Nov 2
First Quarter
Nov 10
Full
Nov 18
Last Quarter

Hourly Weather History & Observations

Time (AKDT) Temp. Windchill Dew Point Humidity Pressure Visibility Wind Dir Wind Speed Gust Speed Precip Events Conditions
12:53 AM 44.1 °F 39.5 °F 39.9 °F 85% 30.23 in 10.0 mi East 8.1 mph - 0.00 in   Overcast
1:53 AM 45.0 °F 39.7 °F 39.0 °F 80% 30.22 in 10.0 mi ESE 10.4 mph - 0.01 in Rain Light Rain
2:53 AM 45.0 °F 39.7 °F 39.0 °F 80% 30.20 in 7.0 mi ESE 10.4 mph - 0.00 in Rain Light Rain
3:00 AM 44.6 °F 39.7 °F 39.2 °F 81% 30.19 in 6.0 mi ESE 9.2 mph - 0.01 in Rain Light Rain
3:21 AM 44.6 °F 39.2 °F 39.2 °F 81% 30.19 in 10.0 mi ESE 10.4 mph - 0.01 in   Overcast
3:53 AM 45.0 °F 38.5 °F 39.9 °F 82% 30.18 in 9.0 mi ESE 13.8 mph 19.6 mph 0.03 in Rain Light Rain
4:53 AM 45.0 °F 38.9 °F 39.9 °F 82% 30.17 in 6.0 mi ESE 12.7 mph - 0.04 in Rain Rain
5:35 AM 44.6 °F 39.7 °F 39.2 °F 81% 30.13 in 10.0 mi ESE 9.2 mph - 0.03 in Rain Light Rain
5:53 AM 46.0 °F 41.0 °F 39.9 °F 79% 30.13 in 10.0 mi SE 10.4 mph - 0.03 in Rain Light Rain
6:53 AM 45.0 °F 39.7 °F 39.9 °F 82% 30.12 in 10.0 mi ESE 10.4 mph - 0.01 in   Overcast
7:53 AM 45.0 °F 39.3 °F 39.9 °F 82% 30.09 in 10.0 mi East 11.5 mph - 0.01 in Rain Light Rain
8:53 AM 46.9 °F - 37.9 °F 71% 30.06 in 10.0 mi ESE 12.7 mph - 0.00 in Rain Light Rain
9:53 AM 46.9 °F - 39.0 °F 74% 30.02 in 10.0 mi ESE 13.8 mph - 0.00 in Rain Light Rain
10:53 AM 46.9 °F - 39.9 °F 77% 29.99 in 10.0 mi ESE 13.8 mph - 0.00 in Rain Light Rain
11:53 AM 46.0 °F 40.2 °F 39.9 °F 79% 29.95 in 8.0 mi ESE 12.7 mph 21.9 mph 0.01 in Rain Light Rain
12:53 PM 45.0 °F 37.6 °F 41.0 °F 86% 29.91 in 5.0 mi ESE 17.3 mph - 0.04 in Rain Light Rain
1:53 PM 45.0 °F 36.6 °F 39.9 °F 82% 29.83 in 10.0 mi ESE 21.9 mph 28.8 mph 0.02 in Rain Light Rain
2:53 PM 45.0 °F 37.6 °F 39.9 °F 82% 29.78 in 5.0 mi ESE 17.3 mph 24.2 mph 0.04 in Rain Light Rain
3:45 PM 44.6 °F 37.2 °F 39.2 °F 81% 29.73 in 4.0 mi SE 17.3 mph - 0.09 in Rain Rain
3:53 PM 44.1 °F 36.2 °F 39.9 °F 85% 29.72 in 5.0 mi ESE 18.4 mph - 0.10 in Rain Light Rain
4:08 PM 44.6 °F 37.4 °F 39.2 °F 81% 29.70 in 5.0 mi SE 16.1 mph 25.3 mph 0.02 in Rain Light Rain
4:53 PM 44.1 °F 36.5 °F 39.9 °F 85% 29.65 in 4.0 mi SE 17.3 mph - 0.08 in Rain Light Rain
5:18 PM 44.6 °F 36.6 °F 39.2 °F 81% 29.62 in 5.0 mi SE 19.6 mph 27.6 mph 0.05 in Rain Rain
5:53 PM 44.1 °F 35.7 °F 39.0 °F 82% 29.60 in 4.0 mi ESE 20.7 mph 33.4 mph 0.14 in Rain Rain
6:53 PM 43.0 °F 34.2 °F 39.0 °F 86% 29.56 in 4.0 mi ESE 20.7 mph 36.8 mph 0.12 in Rain Rain
7:19 PM 42.8 °F 33.3 °F 39.2 °F 87% 29.52 in 6.0 mi ESE 24.2 mph 31.1 mph 0.05 in Rain Light Rain
7:53 PM 43.0 °F 33.5 °F 37.9 °F 82% 29.48 in 5.0 mi ESE 24.2 mph 42.6 mph 0.09 in Rain Rain
8:53 PM 43.0 °F 33.5 °F 37.9 °F 82% 29.44 in 4.0 mi ESE 24.2 mph 40.3 mph 0.09 in Rain Rain
9:17 PM 42.8 °F 38.6 °F 37.4 °F 81% 29.51 in 2.5 mi Variable 6.9 mph 21.9 mph 0.10 in Rain Heavy Rain
9:35 PM 42.8 °F 36.2 °F 39.2 °F 87% 29.51 in 3.0 mi WNW 12.7 mph 17.3 mph 0.21 in Rain Heavy Rain
9:53 PM 39.9 °F 34.5 °F 37.9 °F 93% 29.51 in 4.0 mi NE 8.1 mph - 0.28 in Rain Rain
10:53 PM 39.9 °F 32.5 °F 36.0 °F 86% 29.48 in 10.0 mi East 12.7 mph - 0.04 in   Overcast
11:53 PM 39.9 °F 37.8 °F 37.9 °F 93% 29.49 in 4.0 mi Variable 3.5 mph - 0.08 in Rain Rain